Location: Unspecified
(0.0000°N, 0.0000°E)
Time: 04:34:57
(UTC+00:00)

N. Korean satellite - Pass Details

Date: 08 October 2017
Orbit: 461 x 513 km, 97.2° (Epoch: 11 December)

Event Time Altitude Azimuth Distance (km) Brightness Sun altitude
Rises 19:17:34 0° 201° (SSW) 2,621 10.7 -22.4°
Reaches altitude 10° 19:20:35 10° 228° (SW) 1,725 10.1 -23.2°
Maximum altitude 19:22:26 13° 258° (WSW) 1,518 10.1 -23.6°
Drops below altitude 10° 19:24:16 10° 288° (WNW) 1,710 10.2 -24.1°
Sets 19:27:15 0° 316° (NW) 2,579 10.8 -24.8°
